Location: Proctor
(47.8934°N, 114.3048°W)
Time: 07:07:31
(UTC+00:00)

ISS - Pass Details

Date: 21 May 2024
Orbit: 409 x 421 km, 51.6° (Epoch: 13 June)

Event Time Altitude Azimuth Distance (km) Brightness Sun altitude
Rises 04:49:52 0° 291° (WNW) 2,377 1.2 -12.6°
Reaches altitude 10° 04:52:00 10° 295° (WNW) 1,508 0.1 -12.8°
Maximum altitude 04:55:21 59° 16° (NNE) 489 -3.3 -13.1°
Enters shadow 04:57:58 15° 95° (E) 1,218 -1.8 -13.4°
